Location: Berg
(48.5667°N, 13.9833°E)
Time: 02:46:46
(UTC+00:00)

Cosmos 2082 Rocket - Pass Details

Date: 09 April 2020
Orbit: 831 x 855 km, 71.0° (Epoch: 26 May)

Event Time Altitude Azimuth Distance (km) Brightness Sun altitude
Exits shadow 20:34:22 27° 68° (ENE) 1,562 3.4 -24.4°
Drops below altitude 10° 20:37:27 10° 43° (NE) 2,469 4.7 -24.8°
Sets 20:40:06 0° 34° (NE) 3,412 5.5 -25.1°
